EZY015 EGNH-EGCC

Flight info

Callsign EZY015
Flight time N/A
Altitude 7000
Route EGNH DCT CROFT DCT BARTN EGCC
Aircraft A320/M-VGDW/C

Departure

Time 2026-04-24 13:43
Airport Blackpool Airport (EGNH)

Arrival

Time N/A
Airport Manchester Airport (EGCC)
Time Latitude Longitude Altitude Speed Heading
2026-04-24 13:26 53.77753 -3.04193 51 ft 0 kts 163°
2026-04-24 13:41 53.77751 -3.04193 52 ft 2 kts 163°
2026-04-24 13:41 53.77689 -3.04164 52 ft 13 kts 171°
2026-04-24 13:42 53.77583 -3.04228 51 ft 20 kts 211°
2026-04-24 13:42 53.77457 -3.04359 52 ft 22 kts 211°
2026-04-24 13:42 53.77302 -3.04383 48 ft 24 kts 164°
2026-04-24 13:42 53.77220 -3.04191 50 ft 27 kts 94°
2026-04-24 13:43 53.77183 -3.03424 54 ft 104 kts 95°
2026-04-24 13:43 53.77102 -3.01863 296 ft 148 kts 97°
2026-04-24 13:43 53.76997 -3.00032 1117 ft 162 kts 97°
2026-04-24 13:43 53.76887 -2.98138 2058 ft 165 kts 97°
2026-04-24 13:44 53.76751 -2.95984 2026 ft 216 kts 95°
2026-04-24 13:44 53.76501 -2.93611 2181 ft 198 kts 116°
2026-04-24 13:44 53.75518 -2.92215 2147 ft 192 kts 168°
2026-04-24 13:44 53.74283 -2.92899 1665 ft 200 kts 221°
2026-04-24 13:45 53.73306 -2.94542 1355 ft 194 kts 223°
2026-04-24 13:45 53.72812 -2.96403 1499 ft 165 kts 275°
2026-04-24 13:45 53.73478 -2.97665 1326 ft 147 kts 352°
2026-04-24 13:45 53.74267 -2.96951 1022 ft 132 kts 75°
2026-04-24 13:46 53.74151 -2.95483 755 ft 128 kts 108°
2026-04-24 13:46 53.73868 -2.94049 520 ft 131 kts 108°
2026-04-24 13:46 53.73741 -2.92540 383 ft 132 kts 86°
2026-04-24 13:46 53.73955 -2.91033 193 ft 130 kts 72°
2026-04-24 13:47 53.74240 -2.89651 57 ft 116 kts 73°
2026-04-24 13:47 53.74467 -2.88521 52 ft 72 kts 70°
2026-04-24 13:47 53.74544 -2.88139 51 ft 17 kts 70°
2026-04-24 13:47 53.74557 -2.88076 57 ft 0 kts 71°